Time,TemperatureF,DewpointF,PressureIn,WindDirection,WindDirectionDegrees,WindSpeedMPH,WindSpeedGustMPH,Humidity,HourlyPrecipIn,Conditions,Clouds,dailyrainin,SoftwareType,DateUTC
2013-01-15 00:02:00,10.0,-1.0,30.57,ENE,68,0.0,0.0,61,0.00,,,0.00,,2013-01-15 06:02:00,
2013-01-15 00:12:00,10.0,-1.0,30.57,ENE,68,0.0,0.0,61,0.00,,,0.00,,2013-01-15 06:12:00,
2013-01-15 00:22:00,10.0,-1.0,30.57,ENE,68,0.0,0.0,61,0.00,,,0.00,,2013-01-15 06:22:00,
2013-01-15 00:33:00,10.0,-1.0,30.58,ENE,68,0.0,0.0,61,0.00,,,0.00,,2013-01-15 06:33:00,
2013-01-15 00:43:00,10.0,-1.0,30.58,ENE,68,0.0,0.0,61,0.00,,,0.00,,2013-01-15 06:43:00,
2013-01-15 00:53:00,9.0,-2.0,30.58,ENE,68,0.0,0.0,60,0.00,,,0.00,,2013-01-15 06:53:00,
2013-01-15 01:02:00,10.0,-1.0,30.57,ENE,68,0.0,0.0,61,0.00,,,0.00,,2013-01-15 07:02:00,
2013-01-15 01:12:00,10.0,-1.0,30.57,ENE,68,0.0,0.0,61,0.00,,,0.00,,2013-01-15 07:12:00,
2013-01-15 01:22:00,12.0,2.0,30.57,ENE,68,0.0,0.0,64,0.00,,,0.00,,2013-01-15 07:22:00,
2013-01-15 01:32:00,12.0,3.0,30.57,ENE,68,0.0,0.0,65,0.00,,,0.00,,2013-01-15 07:32:00,
2013-01-15 01:42:00,12.0,3.0,30.57,ENE,68,0.0,0.0,65,0.00,,,0.00,,2013-01-15 07:42:00,
2013-01-15 01:52:00,12.0,3.0,30.57,ENE,68,0.0,0.0,65,0.00,,,0.00,,2013-01-15 07:52:00,
2013-01-15 02:02:00,12.0,3.0,30.57,ENE,68,0.0,0.0,65,0.00,,,0.00,,2013-01-15 08:02:00,
2013-01-15 02:12:00,12.0,3.0,30.57,ENE,68,0.0,0.0,65,0.00,,,0.00,,2013-01-15 08:12:00,
2013-01-15 02:22:00,13.0,4.0,30.57,ENE,68,0.0,0.0,66,0.00,,,0.00,,2013-01-15 08:22:00,
2013-01-15 02:32:00,13.0,4.0,30.56,ENE,68,0.0,0.0,67,0.00,,,0.00,,2013-01-15 08:32:00,
2013-01-15 02:42:00,13.0,4.0,30.56,ENE,68,0.0,0.0,67,0.00,,,0.00,,2013-01-15 08:42:00,
2013-01-15 02:53:00,12.0,3.0,30.57,ENE,68,0.0,0.0,67,0.00,,,0.00,,2013-01-15 08:53:00,
2013-01-15 03:02:00,12.0,3.0,30.57,ENE,68,0.0,0.0,66,0.00,,,0.00,,2013-01-15 09:02:00,
2013-01-15 03:12:00,12.0,3.0,30.57,ENE,68,0.0,0.0,66,0.00,,,0.00,,2013-01-15 09:12:00,
2013-01-15 03:22:00,12.0,3.0,30.58,ENE,68,0.0,0.0,66,0.00,,,0.00,,2013-01-15 09:22:00,
2013-01-15 03:33:00,12.0,3.0,30.57,ENE,68,0.0,0.0,67,0.00,,,0.00,,2013-01-15 09:33:00,
2013-01-15 03:42:00,12.0,3.0,30.57,ENE,68,0.0,0.0,67,0.00,,,0.00,,2013-01-15 09:42:00,
2013-01-15 03:52:00,11.0,2.0,30.57,ENE,68,0.0,0.0,66,0.00,,,0.00,,2013-01-15 09:52:00,
2013-01-15 04:02:00,11.0,2.0,30.57,ENE,68,0.0,0.0,66,0.00,,,0.00,,2013-01-15 10:02:00,
2013-01-15 04:12:00,11.0,2.0,30.57,ENE,68,0.0,0.0,66,0.00,,,0.00,,2013-01-15 10:12:00,
2013-01-15 04:22:00,11.0,2.0,30.57,ENE,68,0.0,0.0,66,0.00,,,0.00,,2013-01-15 10:22:00,
2013-01-15 04:32:00,10.0,1.0,30.56,ENE,68,0.0,0.0,65,0.00,,,0.00,,2013-01-15 10:32:00,
2013-01-15 04:42:00,10.0,1.0,30.56,ENE,68,0.0,0.0,65,0.00,,,0.00,,2013-01-15 10:42:00,
2013-01-15 04:52:00,9.0,-1.0,30.55,ENE,68,0.0,0.0,64,0.00,,,0.00,,2013-01-15 10:52:00,
2013-01-15 05:02:00,9.0,-1.0,30.55,ENE,68,0.0,0.0,64,0.00,,,0.00,,2013-01-15 11:02:00,
2013-01-15 05:12:00,9.0,-1.0,30.55,ENE,68,0.0,0.0,64,0.00,,,0.00,,2013-01-15 11:12:00,
2013-01-15 05:22:00,10.0,1.0,30.54,ENE,68,0.0,0.0,65,0.00,,,0.00,,2013-01-15 11:22:00,
2013-01-15 05:33:00,10.0,1.0,30.54,ENE,68,0.0,0.0,65,0.00,,,0.00,,2013-01-15 11:33:00,
2013-01-15 05:42:00,10.0,1.0,30.54,ENE,68,0.0,0.0,65,0.00,,,0.00,,2013-01-15 11:42:00,
2013-01-15 05:53:00,9.0,-1.0,30.54,ENE,68,0.0,0.0,64,0.00,,,0.00,,2013-01-15 11:53:00,
2013-01-15 06:03:00,10.0,1.0,30.54,ENE,68,0.0,0.0,65,0.00,,,0.00,,2013-01-15 12:03:00,
2013-01-15 06:12:00,10.0,1.0,30.54,ENE,68,0.0,0.0,65,0.00,,,0.00,,2013-01-15 12:12:00,
2013-01-15 06:22:00,10.0,1.0,30.54,ENE,68,0.0,0.0,65,0.00,,,0.00,,2013-01-15 12:22:00,
2013-01-15 06:33:00,10.0,1.0,30.55,ENE,68,0.0,0.0,65,0.00,,,0.00,,2013-01-15 12:33:00,
2013-01-15 06:42:00,10.0,1.0,30.55,ENE,68,0.0,0.0,65,0.00,,,0.00,,2013-01-15 12:42:00,
2013-01-15 06:53:00,9.0,-1.0,30.56,ENE,68,0.0,0.0,63,0.00,,,0.00,,2013-01-15 12:53:00,
2013-01-15 07:03:00,8.0,-2.0,30.56,ENE,68,0.0,0.0,63,0.00,,,0.00,,2013-01-15 13:03:00,
2013-01-15 07:12:00,8.0,-2.0,30.56,ENE,68,0.0,0.0,63,0.00,,,0.00,,2013-01-15 13:12:00,
2013-01-15 07:23:00,7.0,-3.0,30.55,ENE,68,0.0,0.0,62,0.00,,,0.00,,2013-01-15 13:23:00,
2013-01-15 07:33:00,7.0,-3.0,30.55,ENE,68,0.0,0.0,62,0.00,,,0.00,,2013-01-15 13:33:00,
2013-01-15 07:43:00,7.0,-3.0,30.55,ENE,68,0.0,0.0,62,0.00,,,0.00,,2013-01-15 13:43:00,
2013-01-15 07:53:00,8.0,-2.0,30.56,ENE,68,0.0,0.0,63,0.00,,,0.00,,2013-01-15 13:53:00,
2013-01-15 08:02:00,9.0,-1.0,30.56,ENE,68,0.0,0.0,63,0.00,,,0.00,,2013-01-15 14:02:00,
2013-01-15 08:12:00,9.0,-1.0,30.56,ENE,68,0.0,0.0,63,0.00,,,0.00,,2013-01-15 14:12:00,
2013-01-15 08:23:00,10.0,0.0,30.56,ENE,68,0.0,0.0,64,0.00,,,0.00,,2013-01-15 14:23:00,
2013-01-15 08:33:00,11.0,2.0,30.55,ENE,68,0.0,0.0,65,0.00,,,0.00,,2013-01-15 14:33:00,
2013-01-15 08:43:00,11.0,2.0,30.55,ENE,68,0.0,0.0,65,0.00,,,0.00,,2013-01-15 14:43:00,
2013-01-15 08:53:00,14.0,5.0,30.56,ENE,68,0.0,0.0,67,0.00,,,0.00,,2013-01-15 14:53:00,
2013-01-15 09:03:00,15.0,6.0,30.57,ENE,68,0.0,0.0,68,0.00,,,0.00,,2013-01-15 15:03:00,
2013-01-15 09:12:00,15.0,6.0,30.57,ENE,68,0.0,0.0,68,0.00,,,0.00,,2013-01-15 15:12:00,
2013-01-15 09:23:00,18.0,10.0,30.58,ENE,68,0.0,0.0,70,0.00,,,0.00,,2013-01-15 15:23:00,
2013-01-15 09:33:00,19.0,11.0,30.58,ENE,68,0.0,0.0,71,0.00,,,0.00,,2013-01-15 15:33:00,
2013-01-15 09:43:00,19.0,11.0,30.58,ENE,68,0.0,0.0,71,0.00,,,0.00,,2013-01-15 15:43:00,
2013-01-15 09:53:00,21.0,14.0,30.58,ENE,68,0.0,0.0,73,0.00,,,0.00,,2013-01-15 15:53:00,
2013-01-15 10:02:00,22.0,15.0,30.58,ENE,68,0.0,0.0,73,0.00,,,0.00,,2013-01-15 16:02:00,
2013-01-15 10:12:00,22.0,15.0,30.58,ENE,68,0.0,0.0,73,0.00,,,0.00,,2013-01-15 16:12:00,
2013-01-15 10:22:00,23.0,16.0,30.58,ENE,68,0.0,0.0,73,0.00,,,0.00,,2013-01-15 16:22:00,
2013-01-15 10:33:00,25.0,18.0,30.58,ENE,68,0.0,0.0,73,0.00,,,0.00,,2013-01-15 16:33:00,
2013-01-15 10:42:00,25.0,18.0,30.58,ENE,68,0.0,0.0,73,0.00,,,0.00,,2013-01-15 16:42:00,
2013-01-15 10:53:00,27.0,19.0,30.56,ENE,68,0.0,0.0,72,0.00,,,0.00,,2013-01-15 16:53:00,
2013-01-15 11:03:00,27.0,18.0,30.55,ENE,68,0.0,0.0,69,0.00,,,0.00,,2013-01-15 17:03:00,
2013-01-15 11:12:00,27.0,18.0,30.55,ENE,68,0.0,0.0,69,0.00,,,0.00,,2013-01-15 17:12:00,
2013-01-15 11:22:00,27.0,18.0,30.55,ENE,68,0.0,0.0,69,0.00,,,0.00,,2013-01-15 17:22:00,
2013-01-15 11:33:00,30.0,19.0,30.52,ENE,68,0.0,0.0,64,0.00,,,0.00,,2013-01-15 17:33:00,
2013-01-15 11:42:00,30.0,19.0,30.52,ENE,68,0.0,0.0,64,0.00,,,0.00,,2013-01-15 17:42:00,
2013-01-15 11:53:00,31.0,17.0,30.52,ENE,68,0.0,0.0,56,0.00,,,0.00,,2013-01-15 17:53:00,
2013-01-15 12:03:00,34.0,20.0,30.53,ENE,68,0.0,0.0,57,0.00,,,0.00,,2013-01-15 18:03:00,
2013-01-15 12:12:00,34.0,20.0,30.53,ENE,68,0.0,0.0,57,0.00,,,0.00,,2013-01-15 18:12:00,
2013-01-15 12:23:00,34.0,16.0,30.51,SE,135,0.0,0.0,48,0.00,,,0.00,,2013-01-15 18:23:00,
2013-01-15 12:33:00,34.0,16.0,30.50,SE,135,0.0,0.0,47,0.00,,,0.00,,2013-01-15 18:33:00,
2013-01-15 12:42:00,34.0,16.0,30.50,SE,135,0.0,0.0,47,0.00,,,0.00,,2013-01-15 18:42:00,
2013-01-15 12:53:00,33.0,16.0,30.48,SE,135,0.0,0.0,50,0.00,,,0.00,,2013-01-15 18:53:00,
2013-01-15 13:03:00,33.0,16.0,30.48,SE,135,0.0,0.0,49,0.00,,,0.00,,2013-01-15 19:03:00,
2013-01-15 13:12:00,33.0,16.0,30.48,SE,135,0.0,0.0,49,0.00,,,0.00,,2013-01-15 19:12:00,
2013-01-15 13:23:00,33.0,16.0,30.47,SE,135,0.0,0.0,50,0.00,,,0.00,,2013-01-15 19:23:00,
2013-01-15 13:33:00,32.0,15.0,30.46,SE,135,0.0,0.0,49,0.00,,,0.00,,2013-01-15 19:33:00,
2013-01-15 13:42:00,32.0,15.0,30.46,SE,135,0.0,0.0,49,0.00,,,0.00,,2013-01-15 19:42:00,
2013-01-15 13:53:00,31.0,14.0,30.46,SE,135,0.0,0.0,49,0.00,,,0.00,,2013-01-15 19:53:00,
2013-01-15 14:03:00,31.0,14.0,30.46,SE,135,0.0,0.0,49,0.00,,,0.00,,2013-01-15 20:03:00,
2013-01-15 14:12:00,31.0,14.0,30.46,SE,135,0.0,0.0,49,0.00,,,0.00,,2013-01-15 20:12:00,
2013-01-15 14:23:00,33.0,15.0,30.45,SE,135,0.0,0.0,48,0.00,,,0.00,,2013-01-15 20:23:00,
2013-01-15 14:33:00,35.0,17.0,30.45,SE,135,0.0,0.0,47,0.00,,,0.00,,2013-01-15 20:33:00,
2013-01-15 14:43:00,35.0,17.0,30.45,SE,135,0.0,0.0,47,0.00,,,0.00,,2013-01-15 20:43:00,
2013-01-15 14:53:00,34.0,13.0,30.45,SE,135,0.0,0.0,42,0.00,,,0.00,,2013-01-15 20:53:00,
2013-01-15 15:03:00,35.0,15.0,30.45,SE,135,0.0,0.0,43,0.00,,,0.00,,2013-01-15 21:03:00,
2013-01-15 15:12:00,35.0,15.0,30.45,SE,135,0.0,0.0,43,0.00,,,0.00,,2013-01-15 21:12:00,
2013-01-15 15:23:00,33.0,12.0,30.44,SE,135,0.0,0.0,41,0.00,,,0.00,,2013-01-15 21:23:00,
2013-01-15 15:33:00,32.0,11.0,30.45,SE,135,0.0,0.0,41,0.00,,,0.00,,2013-01-15 21:33:00,
2013-01-15 15:43:00,32.0,11.0,30.45,SE,135,0.0,0.0,41,0.00,,,0.00,,2013-01-15 21:43:00,
2013-01-15 15:53:00,30.0,11.0,30.46,SE,135,0.0,0.0,45,0.00,,,0.00,,2013-01-15 21:53:00,
2013-01-15 16:03:00,30.0,12.0,30.46,SE,135,0.0,0.0,47,0.00,,,0.00,,2013-01-15 22:03:00,
2013-01-15 16:12:00,30.0,12.0,30.46,SE,135,0.0,0.0,47,0.00,,,0.00,,2013-01-15 22:12:00,
2013-01-15 16:23:00,29.0,11.0,30.46,SE,135,0.0,0.0,47,0.00,,,0.00,,2013-01-15 22:23:00,
2013-01-15 16:33:00,29.0,11.0,30.46,SE,135,0.0,0.0,47,0.00,,,0.00,,2013-01-15 22:33:00,
2013-01-15 16:43:00,29.0,11.0,30.46,SE,135,0.0,0.0,47,0.00,,,0.00,,2013-01-15 22:43:00,
2013-01-15 16:53:00,28.0,11.0,30.45,SE,135,0.0,0.0,49,0.00,,,0.00,,2013-01-15 22:53:00,
2013-01-15 17:02:00,27.0,11.0,30.45,SE,135,0.0,0.0,50,0.00,,,0.00,,2013-01-15 23:02:00,
2013-01-15 17:12:00,27.0,11.0,30.45,SE,135,0.0,0.0,50,0.00,,,0.00,,2013-01-15 23:12:00,
2013-01-15 17:22:00,25.0,9.0,30.45,SE,135,0.0,0.0,51,0.00,,,0.00,,2013-01-15 23:22:00,
2013-01-15 17:32:00,24.0,9.0,30.44,SE,135,0.0,0.0,52,0.00,,,0.00,,2013-01-15 23:32:00,
2013-01-15 17:42:00,24.0,9.0,30.44,SE,135,0.0,0.0,52,0.00,,,0.00,,2013-01-15 23:42:00,
2013-01-15 17:53:00,23.0,9.0,30.44,SE,135,0.0,0.0,55,0.00,,,0.00,,2013-01-15 23:53:00,
2013-01-15 18:02:00,22.0,9.0,30.43,SE,135,0.0,0.0,56,0.00,,,0.00,,2013-01-16 00:02:00,
2013-01-15 18:12:00,22.0,9.0,30.43,SE,135,0.0,0.0,56,0.00,,,0.00,,2013-01-16 00:12:00,
2013-01-15 18:22:00,21.0,9.0,30.42,SE,135,0.0,0.0,58,0.00,,,0.00,,2013-01-16 00:22:00,
2013-01-15 18:32:00,20.0,8.0,30.42,SE,135,0.0,0.0,59,0.00,,,0.00,,2013-01-16 00:32:00,
2013-01-15 18:43:00,20.0,8.0,30.42,SE,135,0.0,0.0,59,0.00,,,0.00,,2013-01-16 00:43:00,
2013-01-15 18:53:00,19.0,8.0,30.41,SE,135,0.0,0.0,61,0.00,,,0.00,,2013-01-16 00:53:00,
2013-01-15 19:02:00,19.0,8.0,30.41,SE,135,0.0,0.0,61,0.00,,,0.00,,2013-01-16 01:02:00,
2013-01-15 19:12:00,19.0,8.0,30.41,SE,135,0.0,0.0,61,0.00,,,0.00,,2013-01-16 01:12:00,
2013-01-15 19:22:00,18.0,7.0,30.39,SE,135,0.0,0.0,62,0.00,,,0.00,,2013-01-16 01:22:00,
2013-01-15 19:33:00,17.0,7.0,30.38,SE,135,0.0,0.0,63,0.00,,,0.00,,2013-01-16 01:33:00,
2013-01-15 19:42:00,17.0,7.0,30.38,SE,135,0.0,0.0,63,0.00,,,0.00,,2013-01-16 01:42:00,
2013-01-15 19:53:00,17.0,7.0,30.38,SE,135,0.0,0.0,64,0.00,,,0.00,,2013-01-16 01:53:00,
2013-01-15 20:02:00,17.0,7.0,30.37,SE,135,0.0,0.0,65,0.00,,,0.00,,2013-01-16 02:02:00,
2013-01-15 20:12:00,17.0,7.0,30.37,SE,135,0.0,0.0,65,0.00,,,0.00,,2013-01-16 02:12:00,
2013-01-15 20:22:00,17.0,7.0,30.36,SE,135,0.0,0.0,64,0.00,,,0.00,,2013-01-16 02:22:00,
2013-01-15 20:32:00,17.0,7.0,30.36,SE,135,0.0,0.0,64,0.00,,,0.00,,2013-01-16 02:32:00,
2013-01-15 20:42:00,17.0,7.0,30.36,SE,135,0.0,0.0,64,0.00,,,0.00,,2013-01-16 02:42:00,
2013-01-15 20:53:00,17.0,7.0,30.35,SE,135,0.0,0.0,65,0.00,,,0.00,,2013-01-16 02:53:00,
2013-01-15 21:02:00,16.0,6.0,30.35,SE,135,0.0,0.0,65,0.00,,,0.00,,2013-01-16 03:02:00,
2013-01-15 21:12:00,16.0,6.0,30.35,SE,135,0.0,0.0,65,0.00,,,0.00,,2013-01-16 03:12:00,
2013-01-15 21:22:00,16.0,6.0,30.35,SE,135,0.0,0.0,65,0.00,,,0.00,,2013-01-16 03:22:00,
2013-01-15 21:32:00,16.0,6.0,30.34,SE,135,0.0,0.0,65,0.00,,,0.00,,2013-01-16 03:32:00,
2013-01-15 21:42:00,16.0,6.0,30.34,SE,135,0.0,0.0,65,0.00,,,0.00,,2013-01-16 03:42:00,
2013-01-15 21:53:00,16.0,7.0,30.33,SE,135,0.0,0.0,66,0.00,,,0.00,,2013-01-16 03:53:00,
2013-01-15 22:02:00,16.0,6.0,30.33,SE,135,0.0,0.0,65,0.00,,,0.00,,2013-01-16 04:02:00,
2013-01-15 22:12:00,16.0,6.0,30.33,SE,135,0.0,0.0,65,0.00,,,0.00,,2013-01-16 04:12:00,
2013-01-15 22:22:00,16.0,6.0,30.32,SE,135,0.0,0.0,65,0.00,,,0.00,,2013-01-16 04:22:00,
2013-01-15 22:32:00,15.0,5.0,30.32,SE,135,0.0,0.0,65,0.00,,,0.00,,2013-01-16 04:32:00,
2013-01-15 22:42:00,15.0,5.0,30.32,SE,135,0.0,0.0,65,0.00,,,0.00,,2013-01-16 04:42:00,
2013-01-15 22:52:00,15.0,5.0,30.32,SE,135,0.0,0.0,65,0.00,,,0.00,,2013-01-16 04:52:00,
2013-01-15 23:03:00,15.0,5.0,30.32,SE,135,0.0,0.0,65,0.00,,,0.00,,2013-01-16 05:03:00,
2013-01-15 23:12:00,15.0,5.0,30.32,SE,135,0.0,0.0,65,0.00,,,0.00,,2013-01-16 05:12:00,
2013-01-15 23:22:00,15.0,5.0,30.32,SE,135,0.0,0.0,65,0.00,,,0.00,,2013-01-16 05:22:00,